DAL89W KMCO-GOBD

Flight info

Callsign DAL89W
Flight time N/A
Altitude 37000
Route MZULO3 LENDS M203 SNAGY 2960N 2957N 2950N 2945N 2842N 2740N 2434N ULTEM UR976 LUMPO R976 LIGOV
Aircraft A339/H-SADE1E2E3GHIJ3J5M1P2RWXY/LB2D1

Departure

Time 2026-04-25 14:19
Airport Orlando International Airport (KMCO)

Arrival

Time N/A
Airport Blaise Diagne International Airport (GOBD)
Time Latitude Longitude Altitude Speed Heading
2026-04-25 12:42 28.42853 -81.30118 113 ft 0 kts 142°
2026-04-25 13:34 28.42862 -81.30125 113 ft 2 kts 142°
2026-04-25 13:34 28.42873 -81.30136 113 ft 2 kts 142°
2026-04-25 13:35 28.42885 -81.30146 113 ft 2 kts 142°
2026-04-25 13:35 28.42895 -81.30155 113 ft 0 kts 142°
2026-04-25 13:35 28.42904 -81.30164 113 ft 2 kts 122°
2026-04-25 13:35 28.42909 -81.30180 113 ft 2 kts 92°
2026-04-25 13:36 28.42907 -81.30197 113 ft 2 kts 65°
2026-04-25 13:36 28.42899 -81.30211 113 ft 1 kts 37°
2026-04-25 13:36 28.42894 -81.30215 112 ft 1 kts 32°
2026-04-25 13:36 28.42893 -81.30215 112 ft 0 kts 32°
2026-04-25 13:40 28.42911 -81.30195 112 ft 6 kts 52°
2026-04-25 13:40 28.42941 -81.30149 112 ft 8 kts 56°
2026-04-25 13:41 28.42969 -81.30084 112 ft 10 kts 73°
2026-04-25 13:41 28.42968 -81.29998 112 ft 12 kts 109°
2026-04-25 13:41 28.42930 -81.29910 112 ft 12 kts 115°
2026-04-25 13:41 28.42920 -81.29884 112 ft 0 kts 108°
2026-04-25 13:42 28.42917 -81.29871 112 ft 3 kts 102°
2026-04-25 13:42 28.42923 -81.29823 112 ft 7 kts 54°
2026-04-25 13:43 28.42977 -81.29802 112 ft 9 kts
2026-04-25 13:43 28.43050 -81.29801 112 ft 10 kts
2026-04-25 13:43 28.43130 -81.29800 112 ft 11 kts
2026-04-25 13:43 28.43215 -81.29801 112 ft 12 kts 359°
2026-04-25 13:44 28.43258 -81.29803 112 ft 0 kts 359°
2026-04-25 13:50 28.43264 -81.29803 112 ft 2 kts 359°
2026-04-25 13:50 28.43287 -81.29803 112 ft 4 kts 359°
2026-04-25 13:51 28.43326 -81.29804 112 ft 6 kts 359°
2026-04-25 13:51 28.43378 -81.29805 112 ft 8 kts
2026-04-25 13:51 28.43427 -81.29772 112 ft 9 kts 60°
2026-04-25 13:51 28.43438 -81.29715 112 ft 0 kts 86°
2026-04-25 14:16 28.43438 -81.29711 112 ft 2 kts 86°
2026-04-25 14:17 28.43439 -81.29679 112 ft 5 kts 88°
2026-04-25 14:17 28.43432 -81.29626 112 ft 8 kts 118°
2026-04-25 14:17 28.43381 -81.29591 112 ft 9 kts 169°
2026-04-25 14:17 28.43311 -81.29586 112 ft 10 kts 178°
2026-04-25 14:18 28.43144 -81.29584 112 ft 46 kts 180°
2026-04-25 14:18 28.42617 -81.29584 112 ft 101 kts 179°
2026-04-25 14:18 28.41734 -81.29572 113 ft 153 kts 179°
2026-04-25 14:18 28.40548 -81.29554 387 ft 175 kts 180°
2026-04-25 14:19 28.39362 -81.29528 981 ft 167 kts 179°
2026-04-25 14:19 28.38230 -81.29414 1562 ft 161 kts 159°
2026-04-25 14:19 28.37254 -81.28808 1950 ft 165 kts 145°
2026-04-25 14:19 28.36284 -81.28012 2219 ft 179 kts 144°
2026-04-25 14:20 28.35234 -81.27133 2498 ft 194 kts 141°
2026-04-25 14:20 28.34600 -81.26373 2672 ft 205 kts 118°
2026-04-25 14:20 28.34519 -81.24185 3041 ft 227 kts 72°
2026-04-25 14:20 28.35111 -81.22471 3347 ft 244 kts 68°
2026-04-25 14:21 28.35807 -81.20600 3672 ft 262 kts 68°
2026-04-25 14:21 28.36484 -81.18673 4184 ft 270 kts 69°
2026-04-25 14:21 28.37151 -81.16674 4853 ft 272 kts 69°
2026-04-25 14:21 28.37805 -81.14641 5498 ft 275 kts 70°
2026-04-25 14:22 28.38448 -81.12603 6113 ft 278 kts 70°
2026-04-25 14:22 28.39098 -81.10519 6735 ft 280 kts 70°
2026-04-25 14:22 28.39747 -81.08425 7312 ft 283 kts 70°
2026-04-25 14:22 28.40399 -81.06310 7891 ft 286 kts 69°
2026-04-25 14:23 28.41050 -81.04191 8465 ft 289 kts 69°
2026-04-25 14:23 28.41712 -81.02034 9033 ft 292 kts 69°
2026-04-25 14:23 28.42384 -80.99853 9595 ft 295 kts 69°
2026-04-25 14:23 28.43068 -80.97623 10148 ft 299 kts 68°
2026-04-25 14:24 28.43758 -80.95373 10500 ft 310 kts 68°
2026-04-25 14:24 28.44489 -80.92996 10753 ft 325 kts 68°
2026-04-25 14:24 28.45247 -80.90526 10995 ft 339 kts 68°
2026-04-25 14:24 28.46031 -80.87966 11388 ft 349 kts 68°
2026-04-25 14:25 28.46820 -80.85366 11946 ft 352 kts 69°
2026-04-25 14:25 28.47508 -80.82655 12546 ft 356 kts 74°
2026-04-25 14:25 28.47983 -80.79919 13115 ft 360 kts 78°
2026-04-25 14:25 28.48214 -80.78011 13496 ft 362 kts 80°
2026-04-25 14:26 28.48633 -80.74223 14229 ft 367 kts 80°
2026-04-25 14:26 28.48947 -80.71326 14812 ft 370 kts 80°
2026-04-25 14:26 28.49265 -80.68405 15392 ft 372 kts 80°
2026-04-25 14:26 28.49583 -80.65505 15902 ft 376 kts 80°
2026-04-25 14:27 28.49910 -80.62539 16406 ft 380 kts 80°
2026-04-25 14:27 28.50238 -80.59558 16931 ft 384 kts 80°
2026-04-25 14:27 28.50575 -80.56503 17461 ft 387 kts 80°
2026-04-25 14:27 28.50910 -80.53445 17974 ft 391 kts 80°
2026-04-25 14:28 28.51242 -80.50411 18514 ft 393 kts 80°
2026-04-25 14:28 28.51580 -80.47334 19050 ft 396 kts 80°
2026-04-25 14:28 28.51923 -80.44192 19580 ft 399 kts 80°
2026-04-25 14:28 28.52264 -80.41067 20104 ft 401 kts 80°
2026-04-25 14:29 28.52606 -80.37923 20619 ft 403 kts 80°
2026-04-25 14:29 28.52950 -80.34738 21118 ft 406 kts 80°
2026-04-25 14:29 28.53350 -80.31550 21581 ft 407 kts 76°
2026-04-25 14:29 28.54019 -80.28419 22061 ft 407 kts 70°
2026-04-25 14:30 28.54971 -80.25389 22515 ft 407 kts 65°
2026-04-25 14:30 28.57216 -80.19470 23391 ft 411 kts 63°
2026-04-25 14:30 28.58352 -80.16519 23817 ft 413 kts 63°
2026-04-25 14:31 28.59507 -80.13503 24237 ft 415 kts 64°
2026-04-25 14:31 28.60658 -80.10480 24619 ft 418 kts 64°
2026-04-25 14:31 28.61811 -80.07448 24782 ft 426 kts 64°
2026-04-25 14:31 28.62994 -80.04320 25013 ft 432 kts 64°
2026-04-25 14:32 28.64187 -80.01166 25373 ft 434 kts 64°
2026-04-25 14:32 28.65383 -79.97994 25776 ft 435 kts 64°
2026-04-25 14:32 28.66573 -79.94836 26168 ft 436 kts 64°
2026-04-25 14:32 28.67772 -79.91649 26546 ft 438 kts 64°
2026-04-25 14:33 28.68961 -79.88491 26895 ft 439 kts 64°
2026-04-25 14:33 28.70173 -79.85265 27232 ft 441 kts 64°
2026-04-25 14:33 28.71379 -79.82056 27553 ft 443 kts 64°
2026-04-25 14:33 28.72587 -79.78835 27868 ft 445 kts 64°
2026-04-25 14:34 28.73809 -79.75572 28180 ft 447 kts 64°
2026-04-25 14:34 28.75038 -79.72289 28497 ft 448 kts 64°
2026-04-25 14:34 28.76259 -79.69023 28798 ft 450 kts 64°
2026-04-25 14:34 28.77485 -79.65739 29087 ft 452 kts 64°
2026-04-25 14:35 28.78709 -79.62470 29386 ft 453 kts 64°
2026-04-25 14:35 28.80049 -79.59200 29669 ft 454 kts 61°
2026-04-25 14:35 28.81541 -79.56013 29926 ft 455 kts 58°
2026-04-25 14:35 28.83176 -79.52938 30124 ft 457 kts 55°
2026-04-25 14:36 28.84961 -79.49952 30298 ft 460 kts 52°
2026-04-25 14:36 28.86838 -79.46955 30521 ft 462 kts 52°
2026-04-25 14:36 28.88721 -79.43967 30765 ft 464 kts 52°
2026-04-25 14:36 28.90609 -79.40974 30997 ft 466 kts 52°
2026-04-25 14:37 28.92498 -79.37972 31218 ft 467 kts 52°
2026-04-25 14:37 28.94394 -79.34952 31478 ft 468 kts 52°
2026-04-25 14:37 28.96295 -79.31918 31798 ft 467 kts 52°
2026-04-25 14:37 28.98169 -79.28926 32116 ft 466 kts 52°
2026-04-25 14:38 29.00039 -79.25937 32413 ft 466 kts 52°
2026-04-25 14:38 29.01916 -79.22936 32691 ft 465 kts 52°
2026-04-25 14:38 29.03789 -79.19936 32966 ft 465 kts 52°
2026-04-25 14:38 29.05664 -79.16933 33251 ft 464 kts 52°
2026-04-25 14:39 29.07555 -79.13900 33540 ft 463 kts 52°
2026-04-25 14:39 29.09406 -79.10928 33853 ft 462 kts 52°
2026-04-25 14:39 29.11278 -79.07919 34194 ft 461 kts 52°
2026-04-25 14:39 29.13136 -79.04935 34547 ft 459 kts 52°
2026-04-25 14:40 29.14986 -79.01960 34894 ft 457 kts 51°
2026-04-25 14:40 29.16837 -78.98982 35220 ft 456 kts 51°
2026-04-25 14:40 29.18656 -78.96052 35497 ft 455 kts 51°
2026-04-25 14:40 29.20479 -78.93115 35750 ft 455 kts 51°
2026-04-25 14:41 29.22310 -78.90161 36004 ft 454 kts 51°
2026-04-25 14:41 29.24138 -78.87209 36268 ft 453 kts 51°
2026-04-25 14:41 29.25937 -78.84301 36524 ft 452 kts 51°
2026-04-25 14:41 29.27755 -78.81360 36743 ft 452 kts 51°
2026-04-25 14:42 29.29579 -78.78407 36903 ft 453 kts 51°
2026-04-25 14:42 29.30777 -78.76470 36966 ft 454 kts 51°
2026-04-25 14:42 29.34833 -78.69369 36973 ft 457 kts 57°
2026-04-25 14:43 29.37616 -78.62840 36976 ft 460 kts 64°
2026-04-25 14:43 29.39671 -78.55863 36977 ft 464 kts 72°
2026-04-25 14:44 29.40926 -78.48608 36978 ft 466 kts 78°
2026-04-25 14:44 29.41855 -78.41293 36979 ft 466 kts 78°
2026-04-25 14:45 29.42782 -78.33944 36988 ft 466 kts 79°
2026-04-25 14:45 29.43716 -78.26584 36988 ft 467 kts 79°
2026-04-25 14:46 29.44647 -78.19235 36979 ft 467 kts 79°
2026-04-25 14:46 29.45574 -78.11893 36977 ft 467 kts 79°
2026-04-25 14:47 29.46340 -78.05799 36982 ft 467 kts 79°
2026-04-25 14:47 29.47421 -77.97160 36978 ft 467 kts 79°
2026-04-25 14:48 29.48338 -77.89799 36977 ft 467 kts 79°
2026-04-25 14:48 29.49247 -77.82458 36981 ft 467 kts 79°
2026-04-25 14:49 29.50149 -77.75131 36976 ft 466 kts 79°
2026-04-25 14:49 29.51056 -77.67754 36982 ft 467 kts 79°
2026-04-25 14:50 29.51958 -77.60405 36981 ft 467 kts 79°
2026-04-25 14:50 29.52859 -77.52982 36981 ft 468 kts 80°
2026-04-25 14:51 29.53750 -77.45622 36983 ft 468 kts 80°
2026-04-25 14:51 29.54634 -77.38268 36982 ft 468 kts 80°
2026-04-25 14:52 29.55520 -77.30862 36983 ft 468 kts 81°
2026-04-25 14:52 29.56256 -77.24682 36986 ft 467 kts 81°
2026-04-25 14:53 29.57271 -77.16111 36982 ft 467 kts 81°
2026-04-25 14:53 29.58138 -77.08736 36985 ft 467 kts 81°
2026-04-25 14:54 29.59008 -77.01311 36987 ft 467 kts 81°
2026-04-25 14:54 29.59872 -76.93890 36982 ft 467 kts 81°
2026-04-25 14:55 29.60665 -76.86446 36984 ft 468 kts 84°
2026-04-25 14:55 29.60962 -76.78992 36989 ft 468 kts 87°
2026-04-25 14:56 29.61152 -76.71561 36984 ft 468 kts 87°
2026-04-25 14:56 29.61339 -76.64083 36979 ft 467 kts 87°
2026-04-25 14:57 29.61525 -76.56646 36985 ft 467 kts 87°
2026-04-25 14:57 29.61709 -76.49193 36994 ft 467 kts 87°
2026-04-25 14:58 29.61889 -76.41745 37008 ft 467 kts 87°
2026-04-25 14:58 29.62065 -76.34316 37005 ft 468 kts 88°
2026-04-25 14:59 29.62239 -76.26847 37008 ft 469 kts 88°
2026-04-25 14:59 29.62408 -76.19388 37004 ft 468 kts 88°
2026-04-25 15:00 29.62571 -76.11934 37009 ft 468 kts 88°
2026-04-25 15:00 29.62731 -76.04446 37011 ft 467 kts 88°
2026-04-25 15:01 29.62886 -75.97030 37012 ft 466 kts 88°
2026-04-25 15:01 29.63037 -75.89584 37008 ft 466 kts 88°
2026-04-25 15:02 29.63184 -75.82169 37003 ft 467 kts 88°
2026-04-25 15:02 29.63330 -75.74686 37008 ft 467 kts 88°
2026-04-25 15:03 29.63467 -75.67284 37015 ft 468 kts 88°
2026-04-25 15:03 29.63603 -75.59785 37005 ft 468 kts 88°
2026-04-25 15:04 29.63733 -75.52338 37007 ft 468 kts 88°
2026-04-25 15:04 29.63860 -75.44871 37007 ft 467 kts 88°
2026-04-25 15:05 29.63982 -75.37435 37008 ft 467 kts 88°
2026-04-25 15:06 29.64158 -75.26239 37004 ft 467 kts 89°
2026-04-25 15:06 29.64268 -75.18823 37007 ft 466 kts 89°
2026-04-25 15:07 29.64376 -75.11371 36997 ft 465 kts 89°
2026-04-25 15:07 29.64480 -75.03961 37006 ft 466 kts 89°
2026-04-25 15:08 29.64580 -74.96503 37001 ft 466 kts 89°
2026-04-25 15:08 29.64676 -74.89101 37002 ft 466 kts 89°
2026-04-25 15:09 29.64767 -74.81677 37005 ft 466 kts 89°
2026-04-25 15:09 29.64892 -74.70533 37002 ft 466 kts 89°
2026-04-25 15:10 29.64974 -74.63103 37005 ft 466 kts 89°
2026-04-25 15:11 29.65088 -74.51969 37011 ft 466 kts 89°
2026-04-25 15:12 29.65256 -74.33350 37011 ft 466 kts 89°
2026-04-25 15:12 29.65306 -74.27163 37012 ft 465 kts 89°
2026-04-25 15:13 29.65396 -74.14816 37008 ft 465 kts 89°
2026-04-25 15:14 29.65446 -74.07363 37009 ft 466 kts 89°
2026-04-25 15:14 29.65493 -73.99924 37009 ft 466 kts 89°
2026-04-25 15:15 29.65534 -73.92421 37008 ft 466 kts 89°
2026-04-25 15:15 29.65571 -73.85014 37012 ft 466 kts 89°
2026-04-25 15:16 29.65605 -73.77538 37015 ft 466 kts 89°
2026-04-25 15:16 29.65647 -73.66376 37015 ft 466 kts 89°
2026-04-25 15:17 29.65679 -73.55164 37017 ft 467 kts 89°
2026-04-25 15:18 29.65695 -73.47720 37017 ft 467 kts 89°
2026-04-25 15:18 29.65713 -73.36537 37022 ft 468 kts 89°
2026-04-25 15:19 29.65718 -73.30298 37023 ft 468 kts 90°
2026-04-25 15:19 29.65721 -73.21595 37026 ft 467 kts 90°
2026-04-25 15:20 29.65718 -73.14077 37025 ft 467 kts 90°
2026-04-25 15:20 29.65710 -73.06614 37028 ft 468 kts 90°
2026-04-25 15:21 29.65699 -72.99129 37027 ft 468 kts 90°
2026-04-25 15:21 29.65685 -72.91619 37029 ft 469 kts 90°
2026-04-25 15:22 29.65666 -72.84160 37028 ft 469 kts 90°
2026-04-25 15:22 29.65642 -72.76664 37025 ft 470 kts 90°
2026-04-25 15:23 29.65614 -72.69166 37030 ft 469 kts 90°
2026-04-25 15:23 29.65582 -72.61668 37029 ft 470 kts 90°
2026-04-25 15:24 29.65545 -72.54125 37024 ft 470 kts 90°
2026-04-25 15:24 29.65512 -72.47875 37030 ft 471 kts 90°
2026-04-25 15:25 29.65460 -72.39102 37030 ft 471 kts 90°
2026-04-25 15:25 29.65411 -72.31610 37029 ft 471 kts 90°
2026-04-25 15:26 29.65358 -72.24149 37027 ft 470 kts 90°
2026-04-25 15:26 29.65300 -72.16600 37027 ft 471 kts 90°
2026-04-25 15:27 29.65239 -72.09128 37026 ft 471 kts 90°
2026-04-25 15:28 29.65138 -71.97819 37029 ft 472 kts 90°
2026-04-25 15:28 29.65067 -71.90321 37028 ft 472 kts 90°
2026-04-25 15:29 29.64991 -71.82792 37024 ft 472 kts 90°
2026-04-25 15:29 29.64908 -71.75233 37030 ft 473 kts 90°
2026-04-25 15:30 29.64823 -71.67712 37028 ft 472 kts 90°
2026-04-25 15:30 29.64734 -71.60194 37025 ft 472 kts 90°
2026-04-25 15:31 29.64640 -71.52645 37029 ft 473 kts 90°
2026-04-25 15:31 29.64542 -71.45116 37026 ft 473 kts 90°
2026-04-25 15:32 29.64440 -71.37590 37027 ft 474 kts 90°
2026-04-25 15:32 29.64333 -71.30025 37024 ft 475 kts 90°
2026-04-25 15:33 29.64164 -71.18652 37025 ft 474 kts 90°
2026-04-25 15:33 29.64047 -71.11099 37025 ft 475 kts 90°
2026-04-25 15:34 29.63925 -71.03519 37027 ft 475 kts 91°
2026-04-25 15:34 29.63819 -70.97201 37029 ft 475 kts 90°
2026-04-25 15:35 29.63598 -70.84553 37026 ft 476 kts 90°
2026-04-25 15:36 29.63391 -70.73140 37027 ft 477 kts 90°
2026-04-25 15:36 29.63247 -70.65514 37027 ft 477 kts 91°
2026-04-25 15:37 29.63098 -70.57917 37027 ft 477 kts 90°
2026-04-25 15:37 29.62944 -70.50291 37027 ft 477 kts 90°
2026-04-25 15:38 29.62786 -70.42686 37029 ft 478 kts 90°
2026-04-25 15:38 29.62625 -70.35046 37023 ft 479 kts 91°
2026-04-25 15:39 29.62457 -70.27388 37023 ft 479 kts 91°
2026-04-25 15:39 29.62284 -70.19717 37025 ft 480 kts 91°
2026-04-25 15:40 29.62138 -70.13330 37024 ft 480 kts 91°
2026-04-25 15:40 29.61928 -70.04424 37021 ft 480 kts 91°
2026-04-25 15:41 29.61744 -69.96774 37026 ft 480 kts 91°
2026-04-25 15:41 29.61555 -69.89114 37026 ft 481 kts 91°
2026-04-25 15:42 29.61361 -69.81469 37028 ft 482 kts 91°
2026-04-25 15:42 29.61162 -69.73772 37025 ft 481 kts 91°
2026-04-25 15:43 29.60959 -69.66102 37026 ft 482 kts 91°
2026-04-25 15:43 29.60751 -69.58432 37020 ft 482 kts 91°
2026-04-25 15:44 29.60537 -69.50683 37026 ft 482 kts 91°
2026-04-25 15:44 29.60319 -69.42911 37027 ft 483 kts 91°
2026-04-25 15:45 29.60098 -69.35229 37026 ft 483 kts 91°
2026-04-25 15:45 29.59909 -69.28786 37026 ft 484 kts 91°
2026-04-25 15:46 29.59641 -69.19811 37024 ft 484 kts 91°
2026-04-25 15:46 29.59404 -69.12077 37018 ft 485 kts 91°
2026-04-25 15:47 29.59165 -69.04384 37020 ft 484 kts 91°
2026-04-25 15:47 29.58923 -68.96702 37027 ft 484 kts 91°
2026-04-25 15:48 29.58676 -68.89003 37027 ft 485 kts 91°
2026-04-25 15:48 29.58422 -68.81249 37026 ft 485 kts 92°
2026-04-25 15:49 29.58162 -68.73476 37026 ft 487 kts 92°
2026-04-25 15:49 29.57899 -68.65752 37024 ft 487 kts 92°
2026-04-25 15:50 29.57632 -68.57999 37025 ft 488 kts 92°
2026-04-25 15:50 29.57358 -68.50172 37024 ft 489 kts 92°
2026-04-25 15:51 29.57124 -68.43647 37025 ft 488 kts 92°
2026-04-25 15:51 29.56794 -68.34544 37028 ft 489 kts 93°
2026-04-25 15:52 29.56502 -68.26646 37029 ft 489 kts 93°